EW7175 Weather Reports


time (UTC)temp
F
wind
direction
speed
knots
gust
knots
rain 1hr
in
rain 24hr
in
rain mn
in
humidity
%
barometer
mb
20260505193058 83 174 0.0 0.0 0.00 0.00 0.00 76 1006.8
20260505191611 83 162 0.0 0.0 0.00 0.00 0.00 75 1006.9
20260505190057 83 176 0.0 0.0 0.00 0.00 0.00 75 1006.9
20260505184552 82 175 0.0 0.0 0.00 0.00 0.00 77 1007.1
20260505183052 82 170 0.0 0.0 0.00 0.00 0.00 78 1007.2
20260505181550 81 210 0.0 0.0 0.00 0.00 0.00 80 1007.3
20260505180051 81 165 0.0 0.0 0.00 0.00 0.00 80 1007.4
20260505174547 80 176 0.0 0.0 0.00 0.00 0.00 81 1007.5
20260505173043 80 180 0.0 0.0 0.00 0.00 0.00 82 1007.8
20260505171545 80 179 0.0 0.0 0.00 0.00 0.00 84 1007.8
20260505170101 78 350 0.0 0.0 0.00 0.00 0.00 86 1008.0
20260505164543 79 151 0.0 0.0 0.00 0.00 0.00 84 1008.0
20260505163042 79 196 0.0 0.0 0.00 0.00 0.00 83 1007.9
20260505161538 78 157 0.0 0.0 0.00 0.00 0.00 84 1007.8
20260505153036 77 208 0.0 0.0 0.00 0.00 0.00 85 1007.6
20260505151549 77 180 0.0 0.0 0.00 0.00 0.00 85 1007.6
20260505124512 73 138 0.0 0.0 0.00 0.00 0.00 91 1007.0
20260505123007 72 170 0.0 0.0 0.00 0.00 0.00 91 1007.1
20260505121508 72 148 0.0 0.0 0.00 0.00 0.00 91 1007.1
20260505120004 72 180 0.0 0.0 0.00 0.00 0.00 91 1006.7
20260505114559 72 180 0.0 0.0 0.00 0.00 0.00 91 1006.6
20260505113056 71 172 0.0 0.0 0.00 0.00 0.00 91 1007.0
20260505111555 71 178 0.0 0.0 0.00 0.00 0.00 91 1006.7
20260505101556 71 158 0.0 0.0 0.00 0.00 0.00 90 1006.8
20260505100053 71 181 0.0 0.0 0.00 0.00 0.00 90 1006.9
20260505094549 71 173 0.0 0.0 0.00 0.00 0.00 89 1007.0
20260505093048 71 163 0.0 0.0 0.00 0.00 0.00 89 1006.9
20260505091547 71 184 0.0 0.0 0.00 0.00 0.00 89 1007.2
20260505090057 71 159 0.0 0.0 0.00 0.00 0.00 89 1007.1
20260505084550 71 175 0.0 0.0 0.00 0.00 0.00 89 1007.2
20260505083049 71 174 0.0 0.0 0.00 0.00 0.00 88 1007.3
20260505081544 71 177 0.0 0.0 0.00 0.00 0.00 88 1007.6
20260505080039 72 179 0.0 0.0 0.00 0.00 0.00 87 1007.6
20260505074538 72 194 0.0 0.0 0.00 0.00 0.00 87 1007.8
20260505073040 72 157 0.0 0.0 0.00 0.00 0.00 86 1007.8
20260505071535 71 178 0.0 0.0 0.00 0.00 0.00 86 1008.0
20260505070034 71 169 0.0 0.0 0.00 0.00 0.00 85 1008.0
20260505064532 71 205 0.0 0.0 0.00 0.00 0.00 85 1008.1
20260505063030 71 173 0.0 0.0 0.00 0.00 0.00 84 1008.2
20260505061530 71 169 0.0 0.0 0.00 0.00 0.00 84 1008.5
20260505060032 72 139 0.0 0.0 0.00 0.00 0.00 83 1008.7
20260505054535 72 157 0.0 0.0 0.00 0.00 0.00 83 1008.6
20260505053023 72 173 0.0 0.0 0.00 0.00 0.00 82 1008.8
20260505051521 72 156 0.0 0.0 0.00 0.00 0.00 82 1009.0
20260505041516 73 157 0.0 0.0 0.00 0.00 0.00 79 1009.0
20260505040017 73 157 0.0 0.0 0.00 0.00 0.00 78 1009.0
20260505034516 73 145 0.0 0.0 0.00 0.00 0.00 78 1009.1
20260505033019 74 159 0.0 0.0 0.00 0.00 0.00 77 1009.5
20260505031515 74 178 0.0 0.0 0.00 0.00 0.00 76 1009.3
20260505030020 74 138 0.0 0.0 0.00 0.00 0.00 76 1009.1
20260505024514 74 158 0.0 0.0 0.00 0.00 0.00 75 1009.1
20260505023015 75 144 0.0 0.0 0.00 0.00 0.00 74 1009.3
20260505021513 75 144 0.0 0.0 0.00 0.00 0.00 74 1009.0
20260505020013 75 221 0.0 0.0 0.00 0.00 0.00 73 1009.0
20260505014515 76 138 0.0 0.0 0.00 0.00 0.00 72 1008.8
20260505013012 76 157 0.0 0.0 0.00 0.00 0.00 72 1008.6
20260505011517 76 160 0.0 0.0 0.00 0.00 0.00 71 1008.5
20260505010011 76 144 0.0 0.0 0.00 0.00 0.00 71 1008.7
20260505004523 76 157 0.0 0.0 0.00 0.00 0.00 70 1008.6
20260505003011 77 186 0.0 0.0 0.00 0.00 0.00 69 1008.3
20260505001509 77 171 0.0 0.0 0.00 0.00 0.00 69 1008.5
20260505000014 78 146 0.0 0.0 0.00 0.00 0.00 68 1008.8
20260504234508 78 171 0.0 0.0 0.00 0.00 0.00 67 1008.7
20260504233006 78 166 0.0 0.0 0.00 0.00 0.00 67 1008.8
20260504231514 79 160 0.0 0.0 0.00 0.00 0.00 67 1008.8
20260504230004 79 152 0.0 0.0 0.00 0.00 0.00 65 1009.1
20260504224503 80 153 0.0 0.0 0.00 0.00 0.00 64 1009.1
20260504223002 80 162 0.0 0.0 0.00 0.00 0.00 63 1009.2
20260504221606 80 166 0.0 0.0 0.00 0.00 0.00 61 1009.4
20260504220059 80 155 0.0 0.0 0.00 0.00 0.00 60 1009.5
20260504214602 81 63 0.0 0.0 0.00 0.00 0.00 60 1009.6
20260504213103 81 223 0.0 0.0 0.00 0.00 0.00 60 1009.7
20260504211555 82 200 0.0 0.0 0.00 0.00 0.00 59 1009.9
20260504204633 83 221 0.0 0.0 0.00 0.00 0.00 56 1010.5
20260504203050 83 156 0.0 0.0 0.00 0.00 0.00 55 1010.6
20260504201546 82 178 0.0 0.0 0.00 0.00 0.00 57 1010.9
20260504200043 82 153 0.0 0.0 0.00 0.00 0.00 55 1011.2
20260504194548 81 173 0.0 0.0 0.00 0.00 0.00 56 1011.3